This is the latest recevied weather packets stored in our database for station/object CX5ACA-13. If no packets are shown the sender has not sent any weather packets the latest 10 day(s).
| Time | Temp. | Humidity | Pressure | Rain* | Wind** | Luminosity | Snow |
|---|---|---|---|---|---|---|---|
| 1777780917 | 15° C | 57% | 1025.8 hPa | 0 mm | - | 0 W/m² | - |
| 1777780613 | 15° C | 59% | 1025.7 hPa | 0 mm | - | 0 W/m² | - |
| 1777780311 | 15° C | 60% | 1026 hPa | 0 mm | - | 0 W/m² | - |
| 1777780008 | 15° C | 66% | 1026 hPa | 0 mm | - | 0 W/m² | - |
| 1777779705 | 15° C | 64% | 1026.1 hPa | 0 mm | - | 0 W/m² | - |
| 1777779402 | 14.44° C | 67% | 1025.9 hPa | 0 mm | - | 0 W/m² | - |
| 1777779100 | 14.44° C | 70% | 1025.9 hPa | 0 mm | - | 0 W/m² | - |
| 1777778798 | 14.44° C | 69% | 1026 hPa | 0 mm | - | 0 W/m² | - |
| 1777778497 | 14.44° C | 69% | 1025.9 hPa | 0 mm | - | 0 W/m² | - |
| 1777778193 | 14.44° C | 69% | 1026 hPa | 0 mm | - | 0 W/m² | - |
| 1777777891 | 14.44° C | 68% | 1025.8 hPa | 0 mm | - | 0 W/m² | - |
| 1777777587 | 14.44° C | 67% | 1025.8 hPa | 0 mm | - | 0 W/m² | - |
| 1777777284 | 14.44° C | 67% | 1025.9 hPa | 0 mm | - | 0 W/m² | - |
| 1777776980 | 14.44° C | 67% | 1025.9 hPa | 0 mm | - | 0 W/m² | - |
| 1777776679 | 14.44° C | 67% | 1025.9 hPa | 0 mm | - | 0 W/m² | - |
| 1777776374 | 14.44° C | 67% | 1026 hPa | 0 mm | - | 0 W/m² | - |
| 1777776072 | 14.44° C | 67% | 1025.9 hPa | 0 mm | - | 0 W/m² | - |
| 1777775769 | 14.44° C | 66% | 1026 hPa | 0 mm | - | 0 W/m² | - |
| 1777775466 | 14.44° C | 66% | 1026 hPa | 0 mm | - | 0 W/m² | - |
| 1777775161 | 14.44° C | 67% | 1026.1 hPa | 0 mm | - | 0 W/m² | - |
| 1777774856 | 14.44° C | 66% | 1025.7 hPa | 0 mm | - | 0 W/m² | - |
| 1777774553 | 14.44° C | 67% | 1026.1 hPa | 0 mm | - | 0 W/m² | - |
| 1777774250 | 14.44° C | 67% | 1025.9 hPa | 0 mm | - | 0 W/m² | - |
| 1777773947 | 15° C | 67% | 1026 hPa | 0 mm | - | 0 W/m² | - |
| 1777773644 | 14.44° C | 67% | 1026 hPa | 0 mm | - | 0 W/m² | - |
* Rain latest hour (hover to see other rain measurements)
** Current wind speed in m/s (hover to see current wind gust speed)